Weather History for PADE - November, 2013

Change the Weather History Date:

Friday, November 8, 2013

  Actual Average (PAOT) Record (PAOT)
Temperature  
Mean Temperature 32 °F 11 °F  
Max Temperature 39 °F 16 °F 37 °F (1979)
Min Temperature 26 °F - -17 °F (1900)
Degree Days  
Heating Degree Days 32 54  
Month to date heating degree days 416  
Since 1 July heating degree days 3098  
Cooling Degree Days 0    
Month to date cooling degree days  
Year to date cooling degree days  
Moisture  
Dew Point 26 °F    
Average Humidity 83    
Maximum Humidity 93    
Minimum Humidity 72    
Precipitation  
Precipitation 0.00 in 0.02 in 0.18 in (1952)
Month to date precipitation 0.19  
Year to date precipitation 9.66  
Snow  
Snow 0.00 in 0.30 in 2.20 in (2006)
Month to date snowfall 2.3  
Since 1 July snowfall 9.2  
Since 1 September snowfall 9.2  
Snow Depth -    
Sea Level Pressure  
Sea Level Pressure 29.59 in    
Wind  
Wind Speed 18 mph (SSE)    
Max Wind Speed 26 mph    
Max Gust Speed 36 mph    
Visibility 7 miles    
Events Fog , Snow    
T = Trace of Precipitation, MM = Missing Value Source: NWS Daily Summary

Daily Weather History Graph

Daily Weather History Graph

Search for Another Location

Airport or City:

Trip Planner

Search our weather history database for the weather conditions in past years. The results will help you decide how hot, cold, wet, or windy it might be!

Date:

Astronomy

Nov. 08, 2013 Rise Set
Actual Time 10:14 AM AKST 4:54 PM AKST
Civil Twilight 9:11 AM AKST 5:56 PM AKST
Nautical Twilight 8:07 AM AKST 7:00 PM AKST
Astronomical Twilight 7:07 AM AKST 8:00 PM AKST
Moon 3:13 PM AKST (11/8) 10:42 PM AKST (11/8)
Length of Visible Light 8h 45m
Length of Day
6h 39m
Waxing Crescent, 34% of the Moon is Illuminated
Nov 8
Waxing Crescent
Nov 9
First Quarter
Nov 17
Full
Nov 25
Last Quarter
Dec 2
New

Hourly Weather History & Observations

Time (AKST) Temp. Windchill Dew Point Humidity Pressure Visibility Wind Dir Wind Speed Gust Speed Precip Events Conditions
12:53 AM 28.0 °F 15.3 °F 23.0 °F 81% 29.73 in 10.0 mi SSE 18.4 mph - N/A   Overcast
1:53 AM 28.9 °F 18.6 °F 23.0 °F 78% 29.74 in 10.0 mi SE 12.7 mph - 0.00 in   Overcast
2:53 AM 28.9 °F 16.5 °F 24.1 °F 82% 29.73 in 10.0 mi SE 18.4 mph - N/A   Overcast
3:53 AM 30.0 °F 20.5 °F 24.1 °F 79% 29.73 in 10.0 mi SE 11.5 mph - N/A   Overcast
4:53 AM 30.0 °F 17.5 °F 24.1 °F 79% 29.69 in 10.0 mi SE 19.6 mph - N/A   Overcast
5:53 AM 30.0 °F 16.6 °F 24.1 °F 79% 29.67 in 10.0 mi SE 23.0 mph - N/A   Overcast
6:25 AM 28.4 °F 14.1 °F 24.8 °F 86% 29.66 in 3.0 mi SE 24.2 mph 33.4 mph 0.00 in Snow Light Snow
6:53 AM 28.9 °F 16.5 °F 24.1 °F 82% 29.67 in 8.0 mi SE 18.4 mph 26.5 mph 0.00 in Snow Light Snow
7:53 AM 30.9 °F 17.5 °F 26.1 °F 82% 29.65 in 10.0 mi SSE 24.2 mph 32.2 mph 0.00 in   Overcast
8:53 AM 30.9 °F 18.7 °F 27.0 °F 85% 29.64 in 2.5 mi SSE 19.6 mph 27.6 mph 0.00 in Snow Light Snow
9:09 AM 30.2 °F 17.8 °F 28.4 °F 93% 29.64 in 1.8 mi SSE 19.6 mph - 0.00 in Snow Light Snow
9:19 AM 30.2 °F 18.1 °F 28.4 °F 93% 29.64 in 0.5 mi SSE 18.4 mph 25.3 mph 0.00 in Fog , Snow Snow
9:32 AM 30.2 °F 19.8 °F 28.4 °F 93% 29.65 in 0.5 mi South 13.8 mph - 0.00 in Fog , Snow Snow
9:40 AM 30.2 °F 19.8 °F 28.4 °F 93% 29.64 in 0.5 mi South 13.8 mph - 0.00 in Fog , Snow Snow
9:53 AM 30.9 °F 21.2 °F 28.9 °F 92% 29.64 in 0.5 mi South 12.7 mph - 0.00 in Fog , Snow Snow
9:59 AM 30.2 °F 20.8 °F 28.4 °F 93% 29.63 in 0.8 mi South 11.5 mph - 0.00 in Snow Light Snow
10:03 AM 30.2 °F 21.9 °F 28.4 °F 93% 29.63 in 1.0 mi SSE 9.2 mph - 0.00 in Snow Light Snow
10:08 AM 30.2 °F 21.3 °F 28.4 °F 93% 29.63 in 2.0 mi SSE 10.4 mph - 0.00 in Snow Light Snow
10:13 AM 30.2 °F 21.9 °F 28.4 °F 93% 29.63 in 7.0 mi SSE 9.2 mph - 0.00 in Snow Light Snow
10:53 AM 30.9 °F 19.1 °F 27.0 °F 85% 29.63 in 10.0 mi SE 18.4 mph - 0.00 in   Overcast
11:53 AM 30.0 °F 19.5 °F 25.0 °F 82% 29.61 in 10.0 mi SE 13.8 mph - N/A   Overcast
12:53 PM 28.0 °F 16.5 °F 23.0 °F 81% 29.61 in 10.0 mi SSE 15.0 mph - N/A   Partly Cloudy
1:53 PM 28.0 °F 15.7 °F 19.9 °F 72% 29.60 in 10.0 mi South 17.3 mph 23.0 mph N/A   Clear
2:53 PM 26.1 °F 12.3 °F 19.0 °F 75% 29.59 in 10.0 mi SSE 19.6 mph 28.8 mph N/A   Mostly Cloudy
3:53 PM 27.0 °F 12.5 °F 19.0 °F 72% 29.57 in 10.0 mi SSE 23.0 mph - N/A   Scattered Clouds
4:53 PM 30.0 °F 16.6 °F 23.0 °F 75% 29.54 in 10.0 mi SE 23.0 mph 28.8 mph N/A   Overcast
5:53 PM 30.9 °F 16.9 °F 26.1 °F 82% 29.51 in 4.0 mi SE 26.5 mph 34.5 mph 0.00 in Snow Light Snow
6:53 PM 30.9 °F 17.5 °F 26.1 °F 82% 29.48 in 9.0 mi ESE 24.2 mph - 0.00 in   Overcast
7:53 PM 32.0 °F 19.8 °F 27.0 °F 82% 29.44 in 10.0 mi ESE 20.7 mph 28.8 mph 0.00 in   Overcast
8:53 PM 33.1 °F 21.5 °F 28.0 °F 82% 29.39 in 10.0 mi ESE 19.6 mph 27.6 mph N/A   Overcast
9:53 PM 35.1 °F 25.5 °F 28.9 °F 78% 29.35 in 10.0 mi SE 15.0 mph 23.0 mph 0.00 in   Overcast
10:53 PM 39.0 °F 27.8 °F 32.0 °F 76% 29.32 in 10.0 mi South 26.5 mph 33.4 mph N/A   Overcast
11:53 PM 39.0 °F 27.8 °F 32.0 °F 76% 29.34 in 10.0 mi SSE 26.5 mph 35.7 mph N/A   Scattered Clouds